Погода в Кицмани

Украина / Черновицкая область     48°26′28″N   25°45′35″E
темп.,
°C
ветер,
м/с
пор.,
м/с
влажн.,
%
обл.,
%
осадки,
мм/ч
давл.,
гПа
погр.,
м
20 апреля, вт
вт2000:00+8ссв2487100 0.3 1014210
03:00+7всв3590100 0.6 1013303
06:00+7ссв2386100 0.4 1012105
09:00+8с3581100 1.6 1013360
12:00+11с125982 0.8 10121175
15:00+12з3359100 1.9 10111295
18:00+12зсз345686 0.6 10101246
21:00+8зсз237119 0.8 101228
21 апреля, ср
ср2100:00+8з3482100 0.1 101395
03:00+7з3683100 0.2 1013190
06:00+6з2587100 0.1 1013132
09:00+9зсз467657 0.4 1014423
12:00+13з455990 0.4 10141229
15:00+15зсз354697 1.0 10132146
18:00+14зюз345771 0.1 1013271
21:00+10зсз016411 0.1 101411
22 апреля, чт
чт2200:00+7юз22755 0.0 101525
03:00+6ююз227870 0.0 101521
06:00+7зюз237660 0.0 101652
09:00+11ююз236799 0.0 1016239
12:00+16юз354719 0.0 10151722
15:00+17ю344497 0.0 10141659
18:00+16зюз584926 0.0 10141333
21:00+11юз386565 0.0 1015146
23 апреля, пт
пт2300:00+9юз34726 0.0 101559
03:00+6зюз009115 0.0 101510
06:00+7ююз2285100 0.0 101431
09:00+4сз71090100 0.1 1017512
12:00+4сз4895100 1.3 1019541
15:00+6сз4776100 2.8 1020907
18:00+9сз4761100 0.0 10191452
21:00+6сз4867100 0.0 1021256
24 апреля, сб
сб2400:00+3зсз36835 0.0 1023129
03:00+1зсз36905 0.0 1023157
06:000з34905 0.0 102488
09:00+5зсз47665 0.0 1023547
12:00+9сз455172 0.0 10221616
15:00+12сз354250 0.0 10201843
18:00+12сз234499 0.0 10191748
21:00+9ююв015668 0.0 102010